Regional Weather Roundup
Issued by NWS Charleston, WV

Home | Current Version | Previous Version | Graphics & Text | Print | Product List | Glossary Off
Versions: 1 2 3 4 5 6 7 8 9 10 11 12 13 14 15 16 17 18 19 20 21 22 23 24 25 26 27 28 29 30 31 32 33 34 35 36 37 38 39 40 41 42 43 44 45 46 47 48 49 50

000
ASUS41 KRLX 240810
RWRRLX
West Virginia Regional Weather Roundup
National Weather Service Charleston WV
400 AM EDT TUE OCT 24 2017

Note: "fair" indicates few or no clouds below 12,000 feet with no
significant weather and/or obstructions to visibility.

WVZ003-240900-
Northern Panhandle of West Virginia

CITY           SKY/WX    TMP DP  RH WIND       PRES   REMARKS
WHEELING       CLOUDY    54  49  83 SW12G23   29.66F
$$

WVZ009-240900-
Northwest West Virginia

CITY           SKY/WX    TMP DP  RH WIND       PRES   REMARKS
PARKERSBURG    CLOUDY    54  50  86 SW13G22   29.75R
$$

WVZ006-240900-
Western West Virginia

CITY           SKY/WX    TMP DP  RH WIND       PRES   REMARKS
HUNTINGTON     CLEAR     51  46  83 SW9       29.78F
$$

WVZ015-240900-
West Central West Virginia

CITY           SKY/WX    TMP DP  RH WIND       PRES   REMARKS
CHARLESTON     CLOUDY    55  48  77 SW12      29.78R
$$

WVZ022-031-240900-
North Central West Virginia

CITY           SKY/WX    TMP DP  RH WIND       PRES   REMARKS
CLARKSBURG     CLOUDY    56  52  86 SW8       29.73R
MORGANTOWN     LGT RAIN  55  51  86 SW12      29.72S
$$

WVZ025-035-042-045-240900-
Southern West Virginia

CITY           SKY/WX    TMP DP  RH WIND       PRES   REMARKS
BECKLEY        CLOUDY    50  47  89 SW8       29.81R
LOGAN          CLOUDY    50  46  87 SW8G17    29.81S
BLUEFIELD      CLOUDY    48  46  93 W10       29.82S
LEWISBURG      MOCLDY    51  50  97 SW5       29.80S
$$

WVZ047-240900-
Northern Mountains of West Virginia

CITY           SKY/WX    TMP DP  RH WIND       PRES   REMARKS
ELKINS         CLOUDY    53  48  83 S9G17     29.76R
$$

WVZ052-240900-
Eastern Panhandle of West Virginia

CITY           SKY/WX    TMP DP  RH WIND       PRES   REMARKS
MARTINSBURG    CLOUDY    59  58  96 S3        29.68F
PETERSBURG     MOCLDY    53  52  99 NW3       29.72S
$$



USA.gov is the U.S. government's official web portal to all federal, state and local government web resources and services.